Vernon, TX

6:18 AM CST on January 23, 2018 (GMT -0600)
Vernon

Weather History for KF05 - June, 2013

Change the Weather History Date:

Monday, June 10, 2013

  Actual Average (KLTS) Record (KLTS)
Temperature  
Mean Temperature 86 °F -  
Max Temperature 102 °F 88 °F 105 °F (2012)
Min Temperature 69 °F 65 °F 56 °F (2008)
Cooling Degree Days 20    
Growing Degree Days 36 (Base 50)    
Moisture  
Dew Point 57 °F    
Average Humidity 43    
Maximum Humidity 81    
Minimum Humidity 14    
Precipitation  
Precipitation 0.00 in - - ()
Sea Level Pressure  
Sea Level Pressure 29.93 in    
Wind  
Wind Speed 11 mph (SSW)    
Max Wind Speed 21 mph    
Max Gust Speed 24 mph    
Visibility 10 miles    
Events      
Averages and records for this station are not official NWS values.
T = Trace of Precipitation, MM = Missing Value Source: NWS Daily Summary

Daily Weather History Graph

Daily Weather History Graph

Search for Another Location

Airport or City:

Trip Planner

Search our weather history database for the weather conditions in past years. The results will help you decide how hot, cold, wet, or windy it might be!

Date:

Astronomy

Jun. 10, 2013 Rise Set
Actual Time 6:24 AM CDT 8:48 PM CDT
Civil Twilight 5:55 AM CDT 9:17 PM CDT
Nautical Twilight 5:19 AM CDT 9:53 PM CDT
Astronomical Twilight 4:40 AM CDT 10:33 PM CDT
Moon 8:11 AM CDT (6/10) 10:21 PM CDT (6/10)
Length of Visible Light 15h 22m
Length of Day
14h 24m
Waxing Crescent, 4% of the Moon is Illuminated
Jun 10
Waxing Crescent
Jun 16
First Quarter
Jun 23
Full
Jun 29
Last Quarter
Jul 8
New

Hourly Weather History & Observations

Time (CDT) Temp. Heat Index Dew Point Humidity Pressure Visibility Wind Dir Wind Speed Gust Speed Precip Events Conditions
12:16 AM 75.2 °F - 62.6 °F 65% 29.94 in 10.0 mi South 5.8 mph - N/A   Clear
12:37 AM 75.2 °F - 62.6 °F 65% 29.94 in 10.0 mi South 6.9 mph - N/A   Clear
12:55 AM 75.0 °F - 62.6 °F 65% 29.94 in 10.0 mi South 9.2 mph - N/A   Clear
1:00 AM 75.2 °F - 62.6 °F 65% 29.94 in 10.0 mi South 9.2 mph - N/A   Clear
1:35 AM 75.6 °F - 62.6 °F 64% 29.93 in 10.0 mi South 9.2 mph - N/A   Clear
1:55 AM 75.2 °F - 62.8 °F 65% 29.93 in 10.0 mi South 8.1 mph - N/A   Clear
2:15 AM 75.2 °F - 63.3 °F 66% 29.93 in 10.0 mi South 11.5 mph - N/A   Clear
2:35 AM 75.4 °F - 63.5 °F 66% 29.92 in 10.0 mi South 10.4 mph - N/A   Clear
2:55 AM 74.7 °F - 63.5 °F 68% 29.91 in 10.0 mi South 13.8 mph - N/A   Clear
3:15 AM 74.8 °F - 63.0 °F 66% 29.91 in 10.0 mi South 11.5 mph - N/A   Clear
3:35 AM 75.2 °F - 62.8 °F 65% 29.92 in 10.0 mi South 11.5 mph - N/A   Clear
3:55 AM 74.3 °F - 63.1 °F 68% 29.92 in 10.0 mi SSW 9.2 mph - N/A   Clear
4:15 AM 73.6 °F - 63.1 °F 70% 29.93 in 10.0 mi SSW 9.2 mph - N/A   Clear
4:35 AM 73.0 °F - 63.1 °F 71% 29.93 in 10.0 mi SSW 6.9 mph - N/A   Clear
4:55 AM 71.4 °F - 63.1 °F 75% 29.94 in 10.0 mi SW 6.9 mph - N/A   Clear
5:15 AM 69.8 °F - 63.3 °F 80% 29.93 in 10.0 mi SW 6.9 mph - N/A   Clear
5:35 AM 70.0 °F - 63.1 °F 79% 29.94 in 10.0 mi SW 8.1 mph - N/A   Clear
5:55 AM 70.3 °F - 63.3 °F 78% 29.94 in 10.0 mi SW 8.1 mph - N/A   Clear
6:15 AM 70.0 °F - 63.5 °F 80% 29.94 in 10.0 mi SW 8.1 mph - N/A   Clear
6:35 AM 70.0 °F - 63.9 °F 81% 29.95 in 10.0 mi SW 6.9 mph - N/A   Clear
6:55 AM 70.3 °F - 64.2 °F 81% 29.95 in 10.0 mi SSW 6.9 mph - N/A   Clear
7:15 AM 71.2 °F - 64.6 °F 79% 29.95 in 10.0 mi SSW 6.9 mph - N/A   Clear
7:35 AM 72.5 °F - 64.9 °F 77% 29.95 in 10.0 mi SSW 8.1 mph - N/A   Clear
7:55 AM 73.8 °F - 64.9 °F 74% 29.96 in 10.0 mi SW 8.1 mph - N/A   Clear
8:15 AM 75.6 °F - 64.8 °F 69% 29.96 in 10.0 mi SW 9.2 mph - N/A   Clear
8:35 AM 77.4 °F - 64.8 °F 65% 29.97 in 10.0 mi SW 10.4 mph 17.3 mph N/A   Clear
8:55 AM - - - N/A% 29.97 in - SW 11.5 mph - N/A   Unknown
9:15 AM 81.1 °F 82.7 °F 64.0 °F 56% 29.97 in 10.0 mi SW 12.7 mph 18.4 mph N/A   Clear
9:35 AM 82.9 °F 84.2 °F 63.5 °F 52% 29.97 in 10.0 mi SW 15.0 mph - N/A   Clear
9:55 AM 84.4 °F 85.4 °F 63.5 °F 49% 29.97 in 10.0 mi SW 16.1 mph - N/A   Clear
10:15 AM 86.0 °F 87.1 °F 63.5 °F 47% 29.97 in 10.0 mi SW 20.7 mph - N/A   Clear
10:35 AM 87.6 °F 88.5 °F 63.0 °F 44% 29.97 in 10.0 mi SW 16.1 mph - N/A   Clear
10:55 AM 89.1 °F 89.6 °F 62.6 °F 41% 29.97 in 10.0 mi SW 16.1 mph 20.7 mph N/A   Clear
11:15 AM 90.1 °F 90.6 °F 62.1 °F 39% 29.97 in 10.0 mi SW 13.8 mph - N/A   Clear
11:35 AM 91.0 °F 91.2 °F 61.7 °F 37% 29.96 in 10.0 mi SW 17.3 mph 23.0 mph N/A   Clear
11:55 AM 92.3 °F 92.3 °F 60.8 °F 35% 29.96 in 10.0 mi SW 17.3 mph - N/A   Clear
12:15 PM 93.4 °F 93.2 °F 60.1 °F 33% 29.96 in 10.0 mi SW 16.1 mph 20.7 mph N/A   Clear
12:35 PM 94.1 °F 93.5 °F 58.8 °F 31% 29.95 in 10.0 mi SW 16.1 mph 21.9 mph N/A   Clear
12:55 PM 95.4 °F 94.2 °F 57.4 °F 28% 29.95 in 10.0 mi SW 17.3 mph - N/A   Clear
1:15 PM 96.3 °F 95.1 °F 57.0 °F 27% 29.94 in 10.0 mi SSW 15.0 mph - N/A   Clear
1:35 PM 97.5 °F 95.7 °F 55.0 °F 24% 29.93 in 10.0 mi SSW 18.4 mph 24.2 mph N/A   Clear
1:55 PM 98.2 °F - 50.9 °F 20% 29.93 in 10.0 mi SW 15.0 mph 21.9 mph N/A   Clear
2:15 PM 99.0 °F - 48.2 °F 18% 29.93 in 10.0 mi SW 17.3 mph 24.2 mph N/A   Clear
2:35 PM 99.7 °F - 47.5 °F 17% 29.92 in 10.0 mi SW 12.7 mph 23.0 mph N/A   Clear
2:55 PM 100.0 °F - 46.9 °F 16% 29.92 in 10.0 mi SW 15.0 mph - N/A   Clear
3:15 PM 100.9 °F - 45.0 °F 15% 29.91 in 10.0 mi SW 16.1 mph 20.7 mph N/A   Clear
3:35 PM 101.3 °F - 44.8 °F 15% 29.91 in 10.0 mi SW 12.7 mph 24.2 mph N/A   Clear
3:55 PM 101.3 °F - 45.1 °F 15% 29.90 in 10.0 mi SSW 15.0 mph - N/A   Clear
4:15 PM 101.5 °F - 43.9 °F 14% 29.90 in 10.0 mi SSW 16.1 mph 23.0 mph N/A   Clear
4:35 PM 101.8 °F - 43.5 °F 14% 29.89 in 10.0 mi SSW 13.8 mph - N/A   Clear
4:55 PM 102.0 °F - 44.4 °F 14% 29.89 in 10.0 mi SSW 13.8 mph 23.0 mph N/A   Clear
5:15 PM 101.8 °F - 45.3 °F 15% 29.88 in 10.0 mi SSW 12.7 mph 20.7 mph N/A   Clear
5:35 PM 101.7 °F - 47.3 °F 16% 29.88 in 10.0 mi South 17.3 mph 23.0 mph N/A   Clear
5:55 PM 101.3 °F - 48.2 °F 17% 29.88 in 10.0 mi SSW 13.8 mph 23.0 mph N/A   Clear
6:15 PM 100.9 °F - 48.7 °F 17% 29.87 in 10.0 mi South 16.1 mph 20.7 mph N/A   Clear
6:35 PM 100.6 °F - 47.3 °F 16% 29.87 in 10.0 mi South 18.4 mph - N/A   Clear
6:55 PM 100.2 °F - 46.8 °F 16% 29.87 in 10.0 mi SSW 13.8 mph 20.7 mph N/A   Clear
7:15 PM 99.7 °F - 46.9 °F 17% 29.87 in 10.0 mi South 17.3 mph 20.7 mph N/A   Clear
7:35 PM 99.0 °F - 47.1 °F 17% 29.87 in 10.0 mi South 13.8 mph - N/A   Clear
7:55 PM 97.9 °F - 48.2 °F 18% 29.87 in 10.0 mi South 12.7 mph - N/A   Clear
8:15 PM 96.6 °F - 48.7 °F 20% 29.88 in 10.0 mi South 11.5 mph - N/A   Clear
8:35 PM 94.8 °F - 49.5 °F 21% 29.88 in 10.0 mi South 10.4 mph - N/A   Clear
8:55 PM 91.9 °F - 50.7 °F 24% 29.88 in 10.0 mi South 9.2 mph - N/A   Clear
9:15 PM 90.1 °F - 51.1 °F 26% 29.89 in 10.0 mi South 9.2 mph - N/A   Clear
10:36 PM 84.2 °F 82.8 °F 53.6 °F 35% 29.93 in 10.0 mi South 10.4 mph - N/A   Clear
10:58 PM 84.2 °F - 51.8 °F 33% 29.93 in 10.0 mi South 11.5 mph - N/A   Clear
11:35 PM 85.1 °F - 51.6 °F 31% 29.94 in 10.0 mi South 12.7 mph - N/A   Clear
11:36 PM 84.2 °F - 51.8 °F 33% 29.94 in 10.0 mi South 12.7 mph - N/A   Clear
11:55 PM 84.7 °F - 51.3 °F 31% 29.94 in 10.0 mi South 12.7 mph - N/A   Clear